Accueil
METAR-TAF:

METAR-TAF

Aéroports :

Clayton Lake, Maine, États-Unis

latitude: 46-37N, longitude: 069-32W, altitude: 314 m

Observation

Le bulletin a été fait il y a 29 heures et 57 minutes, à 00:16 UTC
Vent calme
Température 16°C
Humidité 82%
Pression 1022 hPa

METAR: K40B 210016Z AUTO 00000KT 16/13 A3017 RMK AO1 SLP206 T01620130 10248 20162 53004 P0000 60000

Heure: 02:13 (06:13 UTC)


TAF: absent

Observations et prévisions météorologiques de plus de 4000 aéroports (messages METAR et TAF).

Les stations disponibles sont représentées par des disques jaunes et rouges sur la carte.

Passer la souris dessus pour voir le nom de la station.

Cliquer dessus pour voir les observations et prévisions météorologiques.

Pour changer de carte: cliquez sur les boutons verts avec une croix noire pour zoomer, sur le bouton vert avec un tiret pour effectuer un zoom arrière, ou sur les flèches vertes pour les cartes adjacentes.


METAR-TAF: